Flight Track Log - Related Links

Times and Time Zones

All times are in EDT time to prevent confusion due to time zone crossing. See the N498QS flight status page for this flight to view local times or setup timezone preferences in your user account.

Time Position Orientation Groundspeed Altitude Reporting Facility
EDT Latitude Longitude Course Direction KTS MPH feet Rate Location/Type
Fri 10:51:03 AM 41.7667 -87.7333 101° East 176 203 1,800  Level Chicago TRACON
Fri 10:51:56 AM 41.7592 -87.6800 101° East 191 220 3,200 1,617 Climbing Chicago Center
Fri 10:52:58 AM 41.7092 -87.6917 190° South 229 264 4,900 2,177 Climbing Chicago Center
Fri 10:54:00 AM 41.7261 -87.8117 281° West 283 326 7,700 2,806 Climbing Chicago Center
Fri 10:55:02 AM 41.7561 -87.9139 292° West 300 345 10,700 2,081 Climbing Chicago Center
Fri 10:56:04 AM 41.8047 -88.0086 305° West 312 359 12,000 629 Climbing Chicago Center
Fri 10:57:06 AM 41.8033 -88.1247 269° West 311 358 12,000  Level Chicago Center
Fri 10:58:08 AM 41.8006 -88.2378 268° West 309 356 12,000 912 Level Chicago Center
Fri 10:59:11 AM 41.7975 -88.3839 268° West 324 373 13,900 1,872 Climbing Chicago Center
Fri 11:00:13 AM 41.7975 -88.5194 270° West 359 413 15,900 1,887 Climbing Chicago Center
Fri 11:01:15 AM 41.8414 -88.6469 295° West 377 434 17,800 1,790 Climbing Chicago Center
Fri 11:02:17 AM 41.8839 -88.7825 293° West 391 450 19,600 1,872 Climbing Chicago Center
Fri 11:03:20 AM 41.8819 -88.9614 269° West 398 458 21,700 1,728 Climbing Chicago Center
Fri 11:04:22 AM 41.8778 -89.1133 268° West 408 470 23,200 1,452 Climbing Chicago Center
Fri 11:05:24 AM 41.8731 -89.2667 268° West 413 475 24,700 1,403 Climbing Chicago Center
Fri 11:06:26 AM 41.8411 -89.4175 254° West 422 486 26,100 1,258 Climbing Chicago Center
Fri 11:07:28 AM 41.7794 -89.5625 240° Southwest 432 497 27,300 1,161 Climbing Chicago Center
Fri 11:08:30 AM 41.7197 -89.7058 241° Southwest 440 506 28,500 1,597 Climbing Chicago Center
Fri 11:09:32 AM 41.6472 -89.8781 241° Southwest 443 510 30,600 1,742 Climbing Chicago Center
Fri 11:10:34 AM 41.5875 -90.0175 240° Southwest 438 504 32,100 1,161 Climbing Chicago Center
Fri 11:11:36 AM 41.5286 -90.1572 241° Southwest 435 501 33,000 435 Climbing Chicago Center
Fri 11:12:38 AM 41.4692 -90.2986 241° Southwest 438 504 33,000  Level Chicago Center
Fri 11:13:40 AM 41.4089 -90.4381 240° Southwest 437 503 33,000 484 Level Chicago Center
Fri 11:14:42 AM 41.3478 -90.5811 240° Southwest 443 510 34,000 1,355 Climbing Chicago Center
Fri 11:15:44 AM 41.2611 -90.7436 235° Southwest 447 514 35,800 1,597 Climbing Chicago Center
Fri 11:16:46 AM 41.1872 -90.8661 231° Southwest 431 496 37,300 1,065 Climbing Chicago Center
Fri 11:17:48 AM 41.1156 -90.9883 232° Southwest 424 488 38,000 339 Climbing Chicago Center
Fri 11:18:50 AM 41.0406 -91.1139 232° Southwest 433 498 38,000  Level Chicago Center
Fri 11:19:52 AM 40.9667 -91.2375 232° Southwest 432 497 38,000  Level Chicago Center
Fri 11:20:54 AM 40.8881 -91.3681 231° Southwest 435 501 38,000  Level Chicago Center
Fri 11:21:56 AM 40.8136 -91.4922 232° Southwest 434 499 38,000  Level Chicago Center
Fri 11:22:58 AM 40.7236 -91.6400 231° Southwest 434 499 38,000 -48 Level Chicago Center
Fri 11:24:00 AM 40.6500 -91.7617 231° Southwest 430 495 37,900 -879 Descending Chicago Center
Fri 11:24:54 AM 40.5894 -91.8594 231° Southwest 433 498 36,300 -1,810 Descending Kansas City Center
Fri 11:25:56 AM 40.5128 -91.9831 231° Southwest 437 503 34,400 -1,113 Descending Kansas City Center
Fri 11:26:58 AM 40.4222 -92.1303 231° Southwest 435 501 34,000 -183 Descending Kansas City Center
Fri 11:28:07 AM 40.3300 -92.2786 231° Southwest 437 503 34,000  Level Chicago Center
Fri 11:29:02 AM 40.2664 -92.3800 231° Southwest 436 502 34,000 -51 Level Kansas City Center
Fri 11:30:04 AM 40.1797 -92.5197 231° Southwest 441 507 33,900 -871 Descending Kansas City Center
Fri 11:31:06 AM 40.1281 -92.6592 244° Southwest 445 512 32,200 -1,694 Descending Kansas City Center
Fri 11:32:08 AM 40.0736 -92.8003 243° Southwest 450 518 30,400 -1,742 Descending Kansas City Center
Fri 11:33:10 AM 40.0156 -92.9444 242° Southwest 456 525 28,600 -1,839 Descending Kansas City Center
Fri 11:34:12 AM 39.9500 -93.1111 243° Southwest 436 502 26,600 -1,742 Descending Kansas City Center
Fri 11:35:14 AM 39.8969 -93.2425 242° Southwest 418 481 25,000 -1,548 Descending Kansas City Center
Fri 11:36:16 AM 39.8442 -93.3750 243° Southwest 414 476 23,400 -1,500 Descending Kansas City Center
Fri 11:37:18 AM 39.7925 -93.5050 243° Southwest 411 473 21,900 -1,500 Descending Kansas City Center
Fri 11:38:20 AM 39.7411 -93.6331 242° Southwest 404 465 20,300 -1,645 Descending Kansas City Center
Fri 11:39:22 AM 39.6814 -93.7839 243° Southwest 394 453 18,500 -1,742 Descending Kansas City Center
Fri 11:40:24 AM 39.6336 -93.8981 242° Southwest 381 438 16,700 -1,984 Descending Kansas City Center
Fri 11:41:26 AM 39.5811 -94.0283 242° Southwest 366 421 14,400 -1,790 Descending Kansas City Center
Fri 11:42:28 AM 39.5347 -94.1400 242° Southwest 367 422 13,000 -968 Descending Kansas City Center
Fri 11:43:30 AM 39.4811 -94.2694 242° Southwest 366 421 12,400 -1,210 Descending Kansas City Center
Fri 11:44:32 AM 39.4353 -94.3800 242° Southwest 363 418 10,500 -1,161 Descending Kansas City Center
Fri 11:45:34 AM 39.3906 -94.4869 242° Southwest 355 409 10,000 -194 Descending Kansas City Center
Fri 11:46:36 AM 39.3381 -94.6128 242° Southwest 356 410 10,100 48 Climbing Kansas City Center
Fri 11:47:38 AM 39.2931 -94.7208 242° Southwest 357 411 10,100 -677 Level Kansas City Center
Fri 11:48:40 AM 39.2856 -94.8458 266° West 311 358 8,700 -1,452 Descending Kansas City Center
Fri 11:49:42 AM 39.2808 -94.9494 267° West 305 351 7,100 -1,742 Descending Kansas City Center
Fri 11:50:44 AM 39.2764 -95.0550 267° West 265 305 5,100 -1,500 Descending Kansas City Center
Fri 11:51:46 AM 39.2425 -95.1161 234° Southwest 227 261 4,000 -581 Descending Kansas City Center
Fri 11:52:48 AM 39.1939 -95.1550 212° Southwest 186 214 3,900 -97 Descending Kansas City Center

Login

Don't have an account? Register now (free) for customized features, flight alerts, and more!